• en Belgique
  • Liste des pays
  • À 7 jours
  • Température de l'eau
  • Carte satellitaire
  • Carte météo
  • Widgets météo
  • user-avatar
    Se connecter

    Météo par heure à Melbourne

    Ce jour, 24 Août, Jeudi

    Heure Température Précipitation Vent Pression Humidité
    00:00 +7°C° 0,1 mm 3 m/s 764 mmHg 94%
    01:00 +7°C° 0,1 mm 3 m/s 764 mmHg 94%
    02:00 +5°C° 0 mm 3 m/s 764 mmHg 94%
    03:00 +5°C° 0 mm 3 m/s 764 mmHg 94%
    04:00 +5°C° 0 mm 3 m/s 764 mmHg 94%
    05:00 +6°C° 0 mm 2 m/s 764 mmHg 94%
    06:00 +5°C° 0 mm 2 m/s 765 mmHg 94%
    07:00 +5°C° 0 mm 2 m/s 765 mmHg 94%
    08:00 +7°C° 0 mm 2 m/s 765 mmHg 91%
    09:00 +9°C° 0 mm 3 m/s 765 mmHg 87%
    10:00 +10°C° 0 mm 4 m/s 766 mmHg 83%
    11:00 +11°C° 0,1 mm 3 m/s 765 mmHg 77%
    12:00 +12°C° 0,1 mm 3 m/s 765 mmHg 70%
    13:00 +13°C° 0,1 mm 3 m/s 765 mmHg 64%
    14:00 +13°C° 0,1 mm 3 m/s 765 mmHg 65%
    15:00 +13°C° 0,1 mm 3 m/s 765 mmHg 65%
    16:00 +13°C° 0,1 mm 4 m/s 765 mmHg 66%
    17:00 +11°C° 0 mm 3 m/s 766 mmHg 73%
    18:00 +10°C° 0 mm 3 m/s 766 mmHg 80%
    19:00 +8°C° 0 mm 3 m/s 767 mmHg 88%
    20:00 +8°C° 0 mm 3 m/s 767 mmHg 89%
    21:00 +7°C° 0 mm 2 m/s 767 mmHg 90%
    22:00 +7°C° 0 mm 2 m/s 768 mmHg 91%
    23:00 +6°C° 0 mm 2 m/s 768 mmHg 91%

    Demain, 25 Août, Vendredi

    Heure Température Précipitation Vent Pression Humidité
    00:00 +6°C° 0 mm 2 m/s 768 mmHg 91%
    01:00 +5°C° 0 mm 2 m/s 768 mmHg 91%
    02:00 +5°C° 0 mm 2 m/s 768 mmHg 91%
    03:00 +5°C° 0 mm 2 m/s 768 mmHg 91%
    04:00 +5°C° 0 mm 2 m/s 768 mmHg 91%
    05:00 +5°C° 0 mm 2 m/s 768 mmHg 92%
    06:00 +4°C° 0 mm 2 m/s 769 mmHg 92%
    07:00 +4°C° 0 mm 2 m/s 769 mmHg 93%
    08:00 +6°C° 0 mm 2 m/s 769 mmHg 84%
    09:00 +9°C° 0 mm 2 m/s 769 mmHg 76%
    10:00 +12°C° 0 mm 2 m/s 769 mmHg 67%
    11:00 +13°C° 0 mm 2 m/s 768 mmHg 63%
    12:00 +14°C° 0 mm 2 m/s 768 mmHg 59%
    13:00 +15°C° 0 mm 2 m/s 768 mmHg 55%
    14:00 +15°C° 0 mm 2 m/s 767 mmHg 57%
    15:00 +15°C° 0 mm 2 m/s 767 mmHg 60%
    16:00 +14°C° 0 mm 2 m/s 767 mmHg 63%
    17:00 +13°C° 0 mm 2 m/s 767 mmHg 68%
    18:00 +12°C° 0 mm 2 m/s 768 mmHg 73%
    19:00 +11°C° 0 mm 1 m/s 768 mmHg 78%
    20:00 +9°C° 0 mm 2 m/s 768 mmHg 80%
    21:00 +9°C° 0 mm 2 m/s 768 mmHg 83%
    22:00 +8°C° 0 mm 2 m/s 768 mmHg 86%
    23:00 +8°C° 0 mm 2 m/s 768 mmHg 88%

    Après-demain, 26 Août, Samedi

    Heure Température Précipitation Vent Pression Humidité
    00:00 +7°C° 0 mm 2 m/s 768 mmHg 90%
    01:00 +7°C° 0 mm 2 m/s 768 mmHg 92%
    02:00 +6°C° 0 mm 2 m/s 768 mmHg 92%
    03:00 +6°C° 0 mm 2 m/s 767 mmHg 91%
    04:00 +6°C° 0 mm 2 m/s 767 mmHg 91%
    05:00 +6°C° 0 mm 2 m/s 767 mmHg 91%
    06:00 +6°C° 0 mm 2 m/s 767 mmHg 90%
    07:00 +6°C° 0 mm 2 m/s 768 mmHg 90%
    08:00 +8°C° 0 mm 3 m/s 768 mmHg 80%
    09:00 +10°C° 0 mm 3 m/s 767 mmHg 70%
    10:00 +13°C° 0 mm 4 m/s 767 mmHg 60%
    11:00 +13°C° 0 mm 4 m/s 767 mmHg 59%
    12:00 +14°C° 0 mm 4 m/s 766 mmHg 57%
    13:00 +14°C° 0 mm 4 m/s 766 mmHg 56%
    14:00 +14°C° 0,1 mm 4 m/s 766 mmHg 60%
    15:00 +13°C° 0,1 mm 3 m/s 765 mmHg 65%
    16:00 +13°C° 0,1 mm 3 m/s 765 mmHg 69%
    17:00 +12°C° 0,1 mm 3 m/s 765 mmHg 75%
    18:00 +11°C° 0,1 mm 3 m/s 766 mmHg 81%
    19:00 +10°C° 0,1 mm 3 m/s 766 mmHg 87%
    20:00 +10°C° 0 mm 3 m/s 766 mmHg 88%
    21:00 +9°C° 0 mm 3 m/s 766 mmHg 89%
    22:00 +8°C° 0 mm 3 m/s 767 mmHg 91%
    23:00 +8°C° 0,3 mm 4 m/s 767 mmHg 92%

    27 Août, Dimanche

    Heure Température Précipitation Vent Pression Humidité
    00:00 +8°C° 0,3 mm 4 m/s 766 mmHg 93%
    01:00 +8°C° 0,3 mm 4 m/s 766 mmHg 93%
    02:00 +8°C° 0,2 mm 4 m/s 767 mmHg 92%
    03:00 +7°C° 0,2 mm 4 m/s 767 mmHg 91%
    04:00 +7°C° 0,2 mm 4 m/s 767 mmHg 90%
    05:00 +7°C° 0,1 mm 3 m/s 767 mmHg 91%
    06:00 +7°C° 0,1 mm 3 m/s 768 mmHg 91%
    07:00 +5°C° 0,1 mm 3 m/s 769 mmHg 91%
    08:00 +7°C° 0,1 mm 3 m/s 769 mmHg 86%
    09:00 +7°C° 0,1 mm 4 m/s 769 mmHg 82%
    10:00 +8°C° 0,1 mm 4 m/s 770 mmHg 77%
    11:00 +10°C° 0,1 mm 4 m/s 769 mmHg 71%
    12:00 +10°C° 0,1 mm 4 m/s 769 mmHg 65%
    13:00 +11°C° 0,1 mm 4 m/s 769 mmHg 60%
    14:00 +10°C° 0 mm 4 m/s 769 mmHg 60%
    15:00 +10°C° 0 mm 4 m/s 769 mmHg 59%
    16:00 +10°C° 0 mm 4 m/s 769 mmHg 59%
    17:00 +9°C° 0 mm 3 m/s 769 mmHg 64%
    18:00 +7°C° 0 mm 3 m/s 770 mmHg 69%
    19:00 +6°C° 0 mm 2 m/s 770 mmHg 74%
    20:00 +6°C° 0 mm 2 m/s 770 mmHg 76%
    21:00 +5°C° 0 mm 2 m/s 770 mmHg 78%
    22:00 +6°C° 0 mm 1 m/s 771 mmHg 80%
    23:00 +6°C° 0 mm 1 m/s 770 mmHg 81%

    28 Août, Lundi

    Heure Température Précipitation Vent Pression Humidité
    00:00 +5°C° 0 mm 1 m/s 770 mmHg 83%
    01:00 +5°C° 0 mm 1 m/s 770 mmHg 84%
    02:00 +5°C° 0 mm 1 m/s 770 mmHg 85%
    03:00 +4°C° 0 mm 2 m/s 769 mmHg 85%
    04:00 +3°C° 0 mm 2 m/s 769 mmHg 85%
    05:00 +4°C° 0 mm 2 m/s 769 mmHg 86%
    06:00 +4°C° 0 mm 2 m/s 770 mmHg 87%
    07:00 +4°C° 0 mm 2 m/s 770 mmHg 88%
    08:00 +6°C° 0 mm 2 m/s 770 mmHg 82%
    09:00 +8°C° 0 mm 2 m/s 770 mmHg 75%
    10:00 +10°C° 0 mm 2 m/s 770 mmHg 69%
    11:00 +10°C° 0,1 mm 2 m/s 769 mmHg 66%
    12:00 +12°C° 0,1 mm 2 m/s 769 mmHg 63%
    13:00 +13°C° 0,1 mm 2 m/s 768 mmHg 60%
    14:00 +12°C° 0 mm 2 m/s 768 mmHg 61%
    15:00 +12°C° 0 mm 2 m/s 768 mmHg 62%
    16:00 +12°C° 0 mm 2 m/s 768 mmHg 63%
    17:00 +10°C° 0 mm 2 m/s 768 mmHg 70%
    18:00 +8°C° 0 mm 2 m/s 768 mmHg 77%
    19:00 +8°C° 0 mm 1 m/s 769 mmHg 84%
    20:00 +7°C° 0 mm 1 m/s 769 mmHg 86%
    21:00 +7°C° 0 mm 1 m/s 769 mmHg 89%
    22:00 +6°C° 0 mm 1 m/s 769 mmHg 91%
    23:00 +6°C° 0 mm 1 m/s 769 mmHg 92%

    29 Août, Mardi

    Heure Température Précipitation Vent Pression Humidité
    00:00 +6°C° 0 mm 1 m/s 768 mmHg 93%
    01:00 +5°C° 0 mm 1 m/s 768 mmHg 94%
    02:00 +5°C° 0 mm 1 m/s 768 mmHg 94%
    03:00 +5°C° 0 mm 1 m/s 768 mmHg 94%
    04:00 +5°C° 0 mm 1 m/s 767 mmHg 94%
    05:00 +5°C° 0 mm 1 m/s 768 mmHg 94%
    06:00 +5°C° 0 mm 1 m/s 768 mmHg 94%
    07:00 +4°C° 0 mm 1 m/s 768 mmHg 94%
    08:00 +7°C° 0 mm 1 m/s 768 mmHg 83%
    09:00 +10°C° 0 mm 1 m/s 768 mmHg 72%
    10:00 +12°C° 0 mm 1 m/s 768 mmHg 61%
    11:00 +13°C° 0 mm 2 m/s 767 mmHg 58%
    12:00 +13°C° 0 mm 2 m/s 767 mmHg 54%
    13:00 +14°C° 0 mm 2 m/s 767 mmHg 51%
    14:00 +14°C° 0 mm 2 m/s 767 mmHg 53%
    15:00 +13°C° 0 mm 2 m/s 767 mmHg 55%
    16:00 +13°C° 0 mm 2 m/s 766 mmHg 56%
    17:00 +12°C° 0 mm 2 m/s 767 mmHg 62%
    18:00 +11°C° 0 mm 1 m/s 767 mmHg 67%
    19:00 +9°C° 0 mm 1 m/s 768 mmHg 72%
    20:00 +8°C° 0 mm 2 m/s 768 mmHg 75%
    21:00 +7°C° 0 mm 2 m/s 768 mmHg 78%
    22:00 +7°C° 0 mm 2 m/s 769 mmHg 80%
    23:00 +6°C° 0 mm 2 m/s 769 mmHg 82%
    Voir plus